This demonstration page uses our WeatherBlox Daily Observations layout. Learn more.

Left ArrowRight Arrow

38.20091, -84.87328

Hourly Observations for September 11, 2016

Temp ( °F °C ) Dew Point ( °F °C ) Humidity (%) Winds ( mph kmh ) Pressure ( in mb ) Visibility ( mi km ) Precip ( " mm )
12:53 am 00:53 Clear 67 19.4 63 17.2 87 87 Calm 30.08 1019 10 16 0.00 0.00
1:53 am 01:53 Clear 65 18.3 62 16.7 90 90 Calm 30.09 1019 10 16 0.00 0.00
2:53 am 02:53 Clear 64 17.8 60 15.6 87 87 WNW 3 6 30.09 1019 10 16 0.00 0.00
3:53 am 03:53 Clear 62 16.7 59 15 90 90 Calm 30.10 1019 10 16 0.00 0.00
4:53 am 04:53 Clear 60 15.6 57 13.9 90 90 Calm 30.11 1020 10 16 0.00 0.00
5:53 am 05:53 Clear 59 15 56 13.3 90 90 Calm 30.13 1020 10 16 0.00 0.00
6:53 am 06:53 Clear 57 13.9 54 12.2 90 90 Calm 30.15 1021 10 16 0.00 0.00
7:53 am 07:53 Sunny 57 13.9 55 12.8 93 93 Calm 30.17 1022 10 16 0.00 0.00
8:53 am 08:53 Sunny 62 16.7 57 13.9 84 84 Calm 30.19 1022 10 16 0.00 0.00
9:53 am 09:53 Sunny 66 18.9 57 13.9 73 73 VRB 6 9 30.20 1023 10 16 0.00 0.00
10:53 am 10:53 Sunny 70 21.1 59 15 68 68 VRB 3 6 30.21 1023 10 16 0.00 0.00
11:53 am 11:53 Sunny 72 22.2 57 13.9 59 59 VRB 3 6 30.21 1023 10 16 0.00 0.00
12:53 pm 12:53 Mostly Sunny 75 23.9 55 12.8 50 50 VRB 3 6 30.19 1023 10 16 0.00 0.00
1:53 pm 13:53 Mostly Sunny 77 25 52 11.1 42 42 VRB 3 6 30.18 1022 10 16 0.00 0.00
2:53 pm 14:53 Mostly Cloudy 76 24.4 52 11.1 43 43 NNE 6 9 30.17 1022 10 16 0.00 0.00
3:53 pm 15:53 Mostly Cloudy 79 26.1 52 11.1 39 39 VRB 5 7 30.15 1021 10 16 0.00 0.00
4:53 pm 16:53 Partly Cloudy 80 26.7 51 10.6 37 37 undefined N/A 30.14 1021 10 16 0.00 0.00
5:53 pm 17:53 Sunny 78 25.6 51 10.6 39 39 VRB 6 9 30.12 1020 10 16 0.00 0.00
6:53 pm 18:53 Sunny 77 25 51 10.6 40 40 NNE 5 7 30.12 1020 10 16 0.00 0.00
7:53 pm 19:53 Sunny 73 22.8 53 11.7 50 50 Calm 30.12 1020 10 16 0.00 0.00
8:53 pm 20:53 Clear 66 18.9 56 13.3 70 70 NNW 3 6 30.14 1021 10 16 0.00 0.00
9:53 pm 21:53 Clear 62 16.7 56 13.3 80 80 NNW 3 6 30.14 1021 10 16 0.00 0.00
10:53 pm 22:53 Clear 61 16.1 56 13.3 84 84 Calm 30.15 1021 10 16 0.00 0.00
11:53 pm 23:53 Clear 60 15.6 56 13.3 86 86 Calm 30.15 1021 10 16 0.00 0.00

Powered by AerisWeather